Weather History for Gustavus, AK

Change the Weather History Date:

Wednesday, November 7, 2012

  Actual Average Record
Temperature  
Mean Temperature 30 °F -  
Max Temperature 37 °F 41 °F 48 °F (1955)
Min Temperature 24 °F 29 °F 8 °F (1950)
Degree Days  
Heating Degree Days 34    
Moisture  
Dew Point 25 °F    
Average Humidity 72    
Maximum Humidity 86    
Minimum Humidity 52    
Precipitation  
Precipitation 0.00 in - - ()
Sea Level Pressure  
Sea Level Pressure 30.13 in    
Wind  
Wind Speed 7 mph (NNW)    
Max Wind Speed 13 mph    
Max Gust Speed 17 mph    
Visibility 10 miles    
Events      
Averages and records for this station are not official NWS values.
T = Trace of Precipitation, MM = Missing Value Source: NWS Daily Summary

Daily Weather History Graph

Daily Weather History Graph

Search for Another Location

Airport:

Trip Planner

Search our weather history database for the weather conditions in past years. The results will help you decide how hot, cold, wet, or windy it might be!

Date:

Astronomy

Nov. 07, 2012 Rise Set
Actual Time 7:34 AM AKST 3:57 PM AKST
Civil Twilight 6:50 AM AKST 4:41 PM AKST
Nautical Twilight 6:02 AM AKST 5:29 PM AKST
Astronomical Twilight 5:15 AM AKST 6:16 PM AKST
Moon No Moon Rise 1:31 PM AKST (11/7)
Length of Visible Light 9h 51m
Length of Day
8h 23m
Last Quarter, 41% of the Moon is Illuminated
Nov 7
Last Quarter
Nov 13
New
Nov 20
First Quarter
Nov 28
Full
Dec 6
Last Quarter

Hourly Weather History & Observations

Time (AKST) Temp. Windchill Dew Point Humidity Pressure Visibility Wind Dir Wind Speed Gust Speed Precip Events Conditions
12:16 AM 35.6 °F 28.0 °F 30.2 °F 81% 29.82 in 10.0 mi NNW 10.4 mph - N/A   Overcast
12:36 AM 35.6 °F 29.2 °F 30.2 °F 81% 29.83 in 10.0 mi NNW 8.1 mph - N/A   Overcast
12:56 AM 35.6 °F 28.6 °F 30.2 °F 81% 29.84 in 10.0 mi NNW 9.2 mph - N/A   Overcast
1:16 AM 35.6 °F 28.6 °F 30.2 °F 81% 29.85 in 10.0 mi NNW 9.2 mph - N/A   Overcast
1:36 AM 35.6 °F 29.2 °F 30.2 °F 81% 29.86 in 10.0 mi NNW 8.1 mph - N/A   Overcast
1:56 AM 35.6 °F 27.5 °F 30.2 °F 81% 29.87 in 10.0 mi NNW 11.5 mph 16.1 mph N/A   Overcast
2:16 AM 35.6 °F 27.1 °F 30.2 °F 81% 29.87 in 10.0 mi NNW 12.7 mph - N/A   Overcast
2:36 AM 35.6 °F 27.5 °F 28.4 °F 75% 29.88 in 10.0 mi NNW 11.5 mph 17.3 mph N/A   Mostly Cloudy
3:36 AM 35.6 °F 27.5 °F 28.4 °F 75% 29.90 in 10.0 mi NNW 11.5 mph - N/A   Overcast
3:56 AM 35.6 °F 27.1 °F 28.4 °F 75% 29.91 in 10.0 mi NNW 12.7 mph - N/A   Overcast
4:16 AM 35.6 °F 27.1 °F 28.4 °F 75% 29.92 in 10.0 mi NNW 12.7 mph - N/A   Mostly Cloudy
4:36 AM 35.6 °F 28.0 °F 28.4 °F 75% 29.93 in 10.0 mi NNW 10.4 mph - N/A   Overcast
4:56 AM 33.8 °F 25.8 °F 28.4 °F 81% 29.94 in 10.0 mi NNW 10.4 mph 17.3 mph N/A   Mostly Cloudy
5:16 AM 33.8 °F 25.3 °F 28.4 °F 81% 29.95 in 10.0 mi NNW 11.5 mph - N/A   Overcast
5:36 AM 33.8 °F 25.3 °F 28.4 °F 81% 29.97 in 7.0 mi NNW 11.5 mph - N/A   Mostly Cloudy
5:56 AM 33.8 °F 24.8 °F 28.4 °F 81% 29.98 in 3.0 mi NNW 12.7 mph - N/A   Overcast
6:16 AM 33.8 °F 25.3 °F 28.4 °F 81% 29.99 in 4.0 mi NNW 11.5 mph - N/A   Overcast
6:36 AM 33.8 °F 25.8 °F 28.4 °F 81% 30.00 in 5.0 mi NNW 10.4 mph - N/A   Overcast
6:56 AM 33.8 °F 25.8 °F 28.4 °F 81% 30.00 in 7.0 mi NNW 10.4 mph - N/A   Overcast
7:16 AM 33.8 °F 26.4 °F 28.4 °F 81% 30.02 in 10.0 mi NNW 9.2 mph - N/A   Overcast
7:36 AM 33.8 °F 25.8 °F 26.6 °F 75% 30.03 in 10.0 mi NNW 10.4 mph - N/A   Overcast
7:56 AM 35.6 °F 29.2 °F 26.6 °F 70% 30.04 in 10.0 mi NNW 8.1 mph - N/A   Overcast
8:16 AM 35.6 °F 29.9 °F 26.6 °F 70% 30.05 in 10.0 mi NNW 6.9 mph - N/A   Overcast
8:36 AM 35.6 °F 30.7 °F 26.6 °F 70% 30.05 in 10.0 mi North 5.8 mph - N/A   Overcast
8:56 AM 35.6 °F 31.7 °F 26.6 °F 70% 30.07 in 10.0 mi North 4.6 mph - N/A   Overcast
9:16 AM 35.6 °F 30.7 °F 26.6 °F 70% 30.07 in 10.0 mi North 5.8 mph - N/A   Mostly Cloudy
9:36 AM 35.6 °F 31.7 °F 26.6 °F 70% 30.08 in 10.0 mi North 4.6 mph - N/A   Mostly Cloudy
9:56 AM 35.6 °F 31.7 °F 24.8 °F 65% 30.09 in 10.0 mi North 4.6 mph - N/A   Overcast
10:16 AM 37.4 °F 33.8 °F 24.8 °F 60% 30.10 in 10.0 mi North 4.6 mph - N/A   Scattered Clouds
10:36 AM 37.4 °F 33.8 °F 26.6 °F 65% 30.11 in 10.0 mi NNW 4.6 mph - N/A   Mostly Cloudy
10:56 AM 37.4 °F 32.8 °F 24.8 °F 60% 30.12 in 10.0 mi NNW 5.8 mph - N/A   Overcast
11:16 AM 37.4 °F 32.8 °F 24.8 °F 60% 30.13 in 10.0 mi NNW 5.8 mph - N/A   Overcast
11:36 AM 37.4 °F 33.8 °F 24.8 °F 60% 30.14 in 10.0 mi NNW 4.6 mph - N/A   Overcast
11:56 AM 37.4 °F 34.9 °F 24.8 °F 60% 30.14 in 10.0 mi NNW 3.5 mph - N/A   Scattered Clouds
12:16 PM 37.4 °F 33.8 °F 24.8 °F 60% 30.15 in 10.0 mi NNW 4.6 mph - N/A   Scattered Clouds
12:36 PM 37.4 °F 33.8 °F 24.8 °F 60% 30.16 in 10.0 mi NNW 4.6 mph - N/A   Partly Cloudy
12:56 PM 37.4 °F 29.8 °F 23.0 °F 56% 30.16 in 10.0 mi NNW 11.5 mph - N/A   Partly Cloudy
1:16 PM 37.4 °F 31.4 °F 23.0 °F 56% 30.18 in 10.0 mi NW 8.1 mph - N/A   Partly Cloudy
1:36 PM 37.4 °F 32.1 °F 21.2 °F 52% 30.18 in 10.0 mi NNW 6.9 mph - N/A   Clear
1:56 PM 37.4 °F 31.4 °F 21.2 °F 52% 30.19 in 10.0 mi NNW 8.1 mph - N/A   Clear
2:16 PM 37.4 °F 32.8 °F 23.0 °F 56% 30.19 in 10.0 mi NNW 5.8 mph - N/A   Clear
2:36 PM 37.4 °F 32.8 °F 23.0 °F 56% 30.20 in 10.0 mi NNW 5.8 mph - N/A   Clear
2:56 PM 37.4 °F 32.8 °F 21.2 °F 52% 30.20 in 10.0 mi NW 5.8 mph - N/A   Clear
3:16 PM 37.4 °F 32.8 °F 21.2 °F 52% 30.21 in 10.0 mi NNW 5.8 mph - N/A   Clear
3:36 PM 35.6 °F 32.8 °F 21.2 °F 56% 30.22 in 10.0 mi NNW 3.5 mph - N/A   Clear
3:56 PM 35.6 °F 32.8 °F 23.0 °F 60% 30.23 in 10.0 mi NNW 3.5 mph - N/A   Clear
4:16 PM 35.6 °F - 21.2 °F 56% 30.24 in 10.0 mi Calm Calm - N/A   Clear
4:36 PM 33.8 °F - 24.8 °F 70% 30.24 in 10.0 mi Calm Calm - N/A   Clear
4:56 PM 32.0 °F - 24.8 °F 75% 30.24 in 10.0 mi Calm Calm - N/A   Clear
5:16 PM 30.2 °F - 24.8 °F 80% 30.25 in 10.0 mi Calm Calm - N/A   Clear
5:36 PM 30.2 °F - 24.8 °F 80% 30.25 in 10.0 mi Calm Calm - N/A   Clear
5:56 PM 28.4 °F - 24.8 °F 86% 30.26 in 10.0 mi Calm Calm - N/A   Clear
6:16 PM 28.4 °F - 23.0 °F 80% 30.27 in 10.0 mi Calm Calm - N/A   Clear
6:36 PM 28.4 °F 24.6 °F 23.0 °F 80% 30.27 in 10.0 mi NNW 3.5 mph - N/A   Clear
6:56 PM 28.4 °F - 23.0 °F 80% 30.28 in 10.0 mi Calm Calm - N/A   Clear
7:16 PM 28.4 °F - 23.0 °F 80% 30.29 in 10.0 mi Calm Calm - N/A   Clear
7:36 PM 28.4 °F - 23.0 °F 80% 30.29 in 10.0 mi Calm Calm - N/A   Clear
7:56 PM 28.4 °F - 23.0 °F 80% 30.29 in 10.0 mi Calm Calm - N/A   Clear
8:16 PM 26.6 °F - 21.2 °F 80% 30.30 in 10.0 mi Calm Calm - N/A   Clear
8:36 PM 26.6 °F - 23.0 °F 86% 30.31 in 10.0 mi Calm Calm - N/A   Clear
8:56 PM 26.6 °F - 21.2 °F 80% 30.31 in 10.0 mi Calm Calm - N/A   Clear
9:16 PM 26.6 °F - 21.2 °F 80% 30.32 in 10.0 mi Calm Calm - N/A   Clear
9:36 PM 26.6 °F - 19.4 °F 74% 30.32 in 10.0 mi Calm Calm - N/A   Clear
9:56 PM 26.6 °F - 19.4 °F 74% 30.32 in 10.0 mi Calm Calm - N/A   Clear
10:16 PM 24.8 °F 20.5 °F 19.4 °F 80% 30.33 in 10.0 mi NNW 3.5 mph - N/A   Clear
10:36 PM 26.6 °F - 21.2 °F 80% 30.33 in 10.0 mi Calm Calm - N/A   Clear
10:56 PM 24.8 °F - 19.4 °F 80% 30.33 in 10.0 mi Calm Calm - N/A   Clear
11:16 PM 26.6 °F - 19.4 °F 74% 30.34 in 10.0 mi Calm Calm - N/A   Clear
11:36 PM 24.8 °F - 19.4 °F 80% 30.34 in 10.0 mi Calm Calm - N/A   Clear
11:56 PM 24.8 °F - 19.4 °F 80% 30.35 in 10.0 mi Calm Calm - N/A   Clear